SDS-1

operational
NORAD ID: 33497 Int'l Des: 2009-002 Owner: JAXA Country: J
LEOCIRCULARRETROGRADESSO

About SDS-1

Description loading...

Live Position

Loading 3D Globe...

Upcoming Passes

Altitude History

Altitude vs Time

uPlot chart will show altitude changes over time

Two-Line Element Set

1 33497U 09002F 26063.30602627 .00001147 00000-0 18098-3 0 9992
2 33497 98.2024 321.3078 0000579 246.5954 113.5193 14.74373429918109
Epoch: Mar 4, 2026 • Age: 17 hours

Current Status

Altitude 663.1 km
Velocity 7.52 km/s
Sub-Earth Point -41.90°S, 87.25°W
Launch Date Jan 23, 2009
Age 17.1 years
Type other

Technical Details

Classification Payload
Mass 100.00 kg
Dry Mass 100.00 kg
Total Mass 100.00 kg
Length 0.70 m
Diameter 0.60 m
Span 0.70 m
Shape Box + 2 Pan
Manufacturer JAXA
Bus Type SDS-1
Phase Status In Orbit
Owner/State JAXA/J

Large Constellations

Loading constellations...